GW5295 Weather Reports


Display with metric or nautical units.
time (UTC)temp
F
wind
direction
speed
MPH
gust
MPH
rain 1hr
in
rain 24hr
in
rain mn
in
humidity
%
barometer
mb
20260906225018 58 284 4.0 8.0 0.00 0.00 0.00 84 1017.3
20260906224558 59 298 4.0 8.0 0.00 0.00 0.00 85 1017.3
20260906224019 59 282 2.0 8.0 0.00 0.00 0.00 85 1017.3
20260906223519 58 282 4.0 9.0 0.00 0.00 0.00 86 1017.4
20260906223057 58 281 6.0 9.0 0.00 0.00 0.00 86 1017.3
20260906222520 58 311 2.0 9.0 0.00 0.00 0.00 88 1017.2
20260906222020 57 327 3.0 9.0 0.00 0.00 0.00 89 1017.3
20260906221555 57 319 6.0 9.0 0.00 0.00 0.00 89 1017.5
20260906221019 56 323 5.0 10.0 0.00 0.00 0.00 90 1017.4
20260906220519 56 302 5.0 10.0 0.00 0.00 0.00 90 1017.5
20260906220052 56 321 4.0 10.0 0.00 0.00 0.00 90 1017.4
20260906215516 56 338 4.0 10.0 0.00 0.00 0.00 90 1017.3
20260906215018 56 285 5.0 9.0 0.00 0.00 0.00 91 1017.5
20260906214557 56 302 4.0 11.0 0.00 0.00 0.00 92 1017.4
20260906214017 55 298 5.0 11.0 0.00 0.00 0.00 92 1017.3
20260906213525 55 321 4.0 12.0 0.00 0.00 0.00 92 1017.3
20260906213052 55 303 8.0 12.0 0.00 0.00 0.00 92 1017.3
20260906212521 55 313 8.0 12.0 0.00 0.00 0.00 92 1017.4
20260906212020 55 316 8.0 11.0 0.00 0.00 0.00 92 1017.4
20260906211552 55 310 8.0 10.0 0.00 0.00 0.00 91 1017.2
20260906211019 55 299 6.0 10.0 0.00 0.00 0.00 91 1017.3
20260906210521 55 319 5.0 12.0 0.00 0.00 0.00 92 1017.3
20260906210113 55 282 7.0 12.0 0.00 0.00 0.00 91 1017.5
20260906205518 55 303 6.0 13.0 0.00 0.00 0.00 92 1017.6
20260906205019 55 300 8.0 12.0 0.00 0.00 0.00 91 1017.5
20260906204559 55 304 8.0 12.0 0.00 0.00 0.00 91 1017.4
20260906204017 55 296 8.0 11.0 0.00 0.00 0.00 90 1017.5
20260906203518 56 317 5.0 10.0 0.00 0.00 0.00 90 1017.5
20260906203050 56 332 4.0 11.0 0.00 0.00 0.00 91 1017.4
20260906202517 55 333 5.0 12.0 0.00 0.00 0.00 91 1017.4
20260906202019 55 305 9.0 12.0 0.00 0.00 0.00 90 1017.5
20260906201601 55 281 8.0 11.0 0.00 0.00 0.00 89 1017.6
20260906201018 56 304 7.0 11.0 0.00 0.00 0.00 88 1017.5
20260906200521 57 349 4.0 9.0 0.00 0.00 0.00 87 1017.6
20260906200119 57 321 3.0 8.0 0.00 0.00 0.00 88 1017.6
20260906195518 57 334 4.0 8.0 0.00 0.00 0.00 88 1017.7
20260906195020 57 289 4.0 8.0 0.00 0.00 0.00 87 1017.7
20260906194554 57 284 4.0 8.0 0.00 0.00 0.00 88 1017.8
20260906194018 56 340 2.0 9.0 0.00 0.00 0.00 88 1017.7
20260906193518 56 333 4.0 10.0 0.00 0.00 0.00 88 1017.8
20260906193052 56 286 5.0 11.0 0.00 0.00 0.00 88 1017.8
20260906192517 56 287 7.0 10.0 0.00 0.00 0.00 86 1017.7
20260906192017 57 285 5.0 9.0 0.00 0.00 0.00 86 1017.8
20260906191551 57 335 2.0 4.0 0.00 0.00 0.00 87 1017.7
20260906191019 56 295 1.0 5.0 0.00 0.00 0.00 87 1017.7
20260906190518 56 287 3.0 5.0 0.00 0.00 0.00 86 1017.8
20260906190139 57 286 1.0 5.0 0.00 0.00 0.00 86 1017.9
20260906185517 57 306 2.0 5.0 0.00 0.00 0.00 85 1017.9
20260906185023 57 338 1.0 7.0 0.00 0.00 0.00 86 1018.0
20260906184553 57 315 2.0 7.0 0.00 0.00 0.00 86 1017.9
20260906184017 56 299 3.0 5.0 0.00 0.00 0.00 86 1017.9
20260906183519 57 287 2.0 3.0 0.00 0.00 0.00 85 1017.9
20260906183058 57 53 0.0 4.0 0.00 0.00 0.00 85 1018.0
20260906182517 57 76 1.0 4.0 0.00 0.00 0.00 86 1017.9
20260906182017 57 43 3.0 5.0 0.00 0.00 0.00 87 1018.0
20260906181602 56 53 3.0 5.0 0.00 0.00 0.00 88 1017.8
20260906181024 55 49 3.0 5.0 0.00 0.00 0.00 88 1017.8
20260906180518 55 103 3.0 6.0 0.00 0.00 0.00 89 1017.7
20260906180103 55 53 3.0 8.0 0.00 0.00 0.00 89 1018.0
20260906175522 55 24 2.0 6.0 0.00 0.00 0.00 90 1018.2
20260906175019 54 61 3.0 5.0 0.00 0.00 0.00 90 1018.0
20260906174552 54 78 1.0 4.0 0.00 0.00 0.00 90 1018.1
20260906174020 54 89 1.0 4.0 0.00 0.00 0.00 90 1018.3
20260906173517 54 102 1.0 3.0 0.00 0.00 0.00 91 1018.1
20260906173057 54 287 0.0 2.0 0.00 0.00 0.00 91 1018.2
20260906172518 54 287 0.0 3.0 0.00 0.00 0.00 91 1018.3
20260906172016 54 347 1.0 5.0 0.00 0.00 0.00 91 1018.2
20260906171556 54 5 2.0 5.0 0.00 0.00 0.00 92 1018.1
20260906171018 54 331 1.0 4.0 0.00 0.00 0.00 92 1018.1
20260906170520 54 341 2.0 4.0 0.00 0.00 0.00 92 1018.3
20260906170109 54 288 0.0 4.0 0.00 0.00 0.00 92 1018.2
20260906165520 53 326 1.0 4.0 0.00 0.00 0.00 93 1018.1
20260906165017 53 336 1.0 5.0 0.00 0.00 0.00 92 1018.1
20260906164602 53 326 2.0 5.0 0.00 0.00 0.00 93 1018.2
20260906164020 53 302 2.0 4.0 0.00 0.00 0.00 93 1018.1
20260906163520 53 318 1.0 4.0 0.00 0.00 0.00 93 1018.2
20260906163103 53 313 2.0 5.0 0.00 0.00 0.00 93 1018.2
20260906162521 53 342 1.0 5.0 0.00 0.00 0.00 93 1018.2
20260906162019 53 313 2.0 5.0 0.00 0.00 0.00 93 1018.2
20260906161557 53 306 1.0 5.0 0.00 0.00 0.00 93 1018.2
20260906161019 53 342 1.0 5.0 0.00 0.00 0.00 93 1018.0
20260906160520 53 284 2.0 5.0 0.00 0.00 0.00 93 1018.1
20260906160109 53 321 2.0 5.0 0.00 0.00 0.00 93 1017.9
20260906155521 52 331 1.0 5.0 0.00 0.00 0.00 92 1018.1
20260906155020 53 299 0.0 4.0 0.00 0.00 0.00 92 1018.0
20260906154924 53 317 1.0 3.0 0.00 0.00 0.00 93 1017.9
20260906154019 53 352 1.0 3.0 0.00 0.00 0.00 93 1017.9
20260906153519 53 329 0.0 3.0 0.00 0.00 0.00 92 1018.0
20260906153047 52 329 0.0 3.0 0.00 0.00 0.00 93 1017.9
20260906152518 52 38 0.0 2.0 0.00 0.00 0.00 93 1017.9
20260906152019 52 103 0.0 2.0 0.00 0.00 0.00 93 1017.8
20260906151545 52 102 0.0 3.0 0.00 0.00 0.00 93 1017.7
20260906151023 52 102 1.0 4.0 0.00 0.00 0.00 93 1018.0
20260906150520 52 104 2.0 4.0 0.00 0.00 0.00 93 1017.8
20260906150044 52 104 2.0 4.0 0.00 0.00 0.00 93 1017.9
20260906145521 52 104 2.0 4.0 0.00 0.00 0.00 93 1018.0
20260906145025 52 104 2.0 4.0 0.00 0.00 0.00 93 1018.1
20260906144552 52 104 2.0 6.0 0.00 0.00 0.00 93 1018.3
20260906144016 52 104 3.0 6.0 0.00 0.00 0.00 93 1018.2
20260906143520 52 98 3.0 7.0 0.00 0.00 0.00 93 1018.3
20260906143048 52 74 3.0 5.0 0.00 0.00 0.00 93 1018.2
20260906142523 52 103 2.0 4.0 0.00 0.00 0.00 93 1018.1
20260906142022 52 105 1.0 3.0 0.00 0.00 0.00 93 1018.0
20260906141550 52 105 0.0 4.0 0.00 0.00 0.00 93 1017.9
20260906141018 52 105 1.0 7.0 0.00 0.00 0.00 93 1017.9
20260906140523 52 105 3.0 7.0 0.00 0.00 0.00 93 1017.9
20260906140052 52 105 5.0 9.0 0.00 0.00 0.00 93 1017.9
20260906135516 52 102 6.0 9.0 0.00 0.00 0.00 93 1017.8
20260906135018 52 105 6.0 9.0 0.00 0.00 0.00 93 1017.9
20260906134545 52 113 4.0 8.0 0.00 0.00 0.00 93 1018.0
20260906134020 52 116 5.0 8.0 0.00 0.00 0.00 93 1017.9
20260906133521 52 128 3.0 7.0 0.00 0.00 0.00 93 1018.0
20260906133108 52 117 3.0 9.0 0.00 0.00 0.00 93 1018.0
20260906132519 51 128 5.0 9.0 0.00 0.00 0.00 93 1017.8
20260906132017 52 117 4.0 8.0 0.00 0.00 0.00 93 1017.9
20260906131539 51 113 4.0 9.0 0.00 0.00 0.00 93 1017.9
20260906131019 52 119 5.0 9.0 0.00 0.00 0.00 93 1017.7
20260906130519 52 110 5.0 9.0 0.00 0.00 0.00 93 1017.9
20260906130109 51 100 4.0 8.0 0.00 0.00 0.00 93 1017.8
20260906125518 52 109 6.0 8.0 0.00 0.00 0.00 92 1017.9
20260906125019 52 109 3.0 7.0 0.00 0.00 0.00 92 1017.9
20260906124552 52 109 3.0 8.0 0.00 0.00 0.00 92 1017.9
20260906124018 52 109 6.0 9.0 0.00 0.00 0.00 92 1017.9
20260906123518 52 116 5.0 8.0 0.00 0.00 0.00 92 1017.9
20260906123047 52 115 6.0 8.0 0.00 0.00 0.00 92 1017.8
20260906122519 52 121 5.0 8.0 0.00 0.00 0.00 92 1017.8
20260906122021 52 122 3.0 8.0 0.00 0.00 0.00 92 1017.7
20260906121549 52 107 4.0 10.0 0.00 0.00 0.00 91 1017.7
20260906121019 52 110 6.0 10.0 0.00 0.00 0.00 91 1017.7
20260906120521 52 106 6.0 10.0 0.00 0.00 0.00 91 1017.5
20260906120050 53 111 5.0 10.0 0.00 0.00 0.00 91 1017.4
20260906115521 53 103 7.0 10.0 0.00 0.00 0.00 90 1017.3
20260906115022 53 111 7.0 10.0 0.00 0.00 0.00 90 1017.2
20260906114546 53 109 5.0 9.0 0.00 0.00 0.00 89 1017.1
20260906114018 53 109 7.0 9.0 0.00 0.00 0.00 89 1017.1
20260906113519 53 107 5.0 8.0 0.00 0.00 0.00 89 1017.0
20260906113045 54 105 5.0 10.0 0.00 0.00 0.00 89 1017.0
20260906112517 54 113 7.0 10.0 0.00 0.00 0.00 89 1017.0
20260906112024 54 105 5.0 10.0 0.00 0.00 0.00 88 1016.9
20260906111601 54 113 6.0 10.0 0.00 0.00 0.00 88 1016.9
20260906111016 54 114 5.0 9.0 0.00 0.00 0.00 88 1016.9
20260906110516 54 111 4.0 8.0 0.00 0.00 0.00 87 1016.8
20260906110100 55 111 5.0 8.0 0.00 0.00 0.00 87 1016.9
20260906105522 55 111 3.0 9.0 0.00 0.00 0.00 87 1016.8
20260906105018 55 113 5.0 8.0 0.00 0.00 0.00 87 1016.8
20260906104545 55 113 3.0 7.0 0.00 0.00 0.00 87 1016.8
20260906104019 55 114 4.0 7.0 0.00 0.00 0.00 88 1016.8
20260906103519 55 129 5.0 7.0 0.00 0.00 0.00 89 1016.7
20260906103051 55 133 4.0 7.0 0.00 0.00 0.00 90 1016.8
20260906102520 55 115 3.0 7.0 0.00 0.00 0.00 90 1016.9
20260906102020 55 275 3.0 6.0 0.00 0.00 0.00 91 1016.8
20260906101553 55 275 2.0 4.0 0.00 0.00 0.00 91 1016.8
20260906101019 55 275 3.0 4.0 0.00 0.00 0.00 91 1016.8
20260906100521 55 275 0.0 4.0 0.00 0.00 0.00 90 1016.8
20260906100049 55 275 0.0 6.0 0.00 0.00 0.00 90 1017.0
20260906095520 54 275 3.0 7.0 0.00 0.00 0.00 89 1017.0
20260906095018 54 275 4.0 7.0 0.00 0.00 0.00 88 1016.9
20260906094600 55 275 5.0 7.0 0.00 0.00 0.00 86 1016.8
20260906094019 55 275 4.0 9.0 0.00 0.00 0.00 84 1016.8
20260906093520 55 275 6.0 9.0 0.00 0.00 0.00 81 1016.8
20260906093056 56 275 4.0 6.0 0.00 0.00 0.00 81 1016.7
20260906092517 57 109 0.0 3.0 0.00 0.00 0.00 81 1016.6
20260906092020 57 109 2.0 3.0 0.00 0.00 0.00 79 1016.5
20260906091543 58 109 0.0 0.0 0.00 0.00 0.00 77 1016.4
20260906091019 58 109 0.0 0.0 0.00 0.00 0.00 77 1016.4
20260906090520 58 109 0.0 0.0 0.00 0.00 0.00 76 1016.5
20260906090114 58 109 0.0 0.0 0.00 0.00 0.00 75 1016.5
20260906085519 58 109 0.0 0.0 0.00 0.00 0.00 75 1016.7
20260906085019 58 109 0.0 0.0 0.00 0.00 0.00 75 1016.6
20260906084552 58 109 0.0 3.0 0.00 0.00 0.00 75 1016.7
20260906084018 58 109 0.0 3.0 0.00 0.00 0.00 75 1016.8
20260906083524 58 109 2.0 3.0 0.00 0.00 0.00 75 1016.6
20260906083053 58 109 1.0 4.0 0.00 0.00 0.00 73 1016.5
20260906082517 58 109 2.0 4.0 0.00 0.00 0.00 74 1016.3
20260906082017 58 109 1.0 2.0 0.00 0.00 0.00 73 1016.3
20260906081551 58 109 1.0 3.0 0.00 0.00 0.00 73 1016.3
20260906081021 59 109 1.0 6.0 0.00 0.00 0.00 73 1016.5
20260906080518 60 109 3.0 6.0 0.00 0.00 0.00 70 1016.4
20260906080055 61 109 1.0 6.0 0.00 0.00 0.00 67 1016.4
20260906075517 61 109 3.0 7.0 0.00 0.00 0.00 67 1016.4
20260906075018 61 109 3.0 7.0 0.00 0.00 0.00 67 1016.3
20260906074551 61 109 3.0 6.0 0.00 0.00 0.00 68 1016.2
20260906074021 61 109 2.0 3.0 0.00 0.00 0.00 69 1016.3
20260906073518 61 109 1.0 6.0 0.00 0.00 0.00 69 1016.2
20260906073054 60 109 3.0 6.0 0.00 0.00 0.00 70 1016.4
20260906072519 60 109 4.0 6.0 0.00 0.00 0.00 71 1016.3
20260906072018 60 109 3.0 6.0 0.00 0.00 0.00 72 1016.2
20260906071552 60 109 2.0 4.0 0.00 0.00 0.00 73 1016.2
20260906071021 60 109 1.0 3.0 0.00 0.00 0.00 71 1016.3
20260906070522 60 109 1.0 2.0 0.00 0.00 0.00 72 1016.1
20260906070045 60 109 1.0 3.0 0.00 0.00 0.00 73 1016.6
20260906065526 60 109 1.0 3.0 0.00 0.00 0.00 73 1016.2
20260906065021 60 109 0.0 2.0 0.00 0.00 0.00 71 1016.3
20260906064551 60 109 0.0 0.0 0.00 0.00 0.00 70 1016.2
20260906064021 60 109 0.0 3.0 0.00 0.00 0.00 72 1016.2
20260906063525 60 109 1.0 3.0 0.00 0.00 0.00 72 1016.1
20260906063055 59 109 1.0 3.0 0.00 0.00 0.00 74 1016.1
20260906062518 59 109 1.0 4.0 0.00 0.00 0.00 78 1016.2
20260906062020 60 109 2.0 4.0 0.00 0.00 0.00 75 1016.3
20260906061602 60 109 0.0 3.0 0.00 0.00 0.00 73 1016.3
20260906061019 60 109 1.0 3.0 0.00 0.00 0.00 76 1016.1
20260906060524 60 109 0.0 2.0 0.00 0.00 0.00 73 1016.2
20260906055523 60 109 1.0 2.0 0.00 0.00 0.00 74 1016.1
20260906055020 60 109 0.0 2.0 0.00 0.00 0.00 73 1016.1
20260906054606 60 109 0.0 2.0 0.00 0.00 0.00 73 1016.2
20260906054018 60 109 1.0 2.0 0.00 0.00 0.00 72 1016.2
20260906053519 60 109 0.0 3.0 0.00 0.00 0.00 72 1016.3
20260906053415 60 109 1.0 4.0 0.00 0.00 0.00 71 1016.2
20260906052524 60 109 2.0 6.0 0.00 0.00 0.00 71 1016.0
20260906052024 62 109 3.0 7.0 0.00 0.00 0.00 68 1016.0
20260906051608 64 103 0.0 3.0 0.00 0.00 0.00 63 1016.0
20260906051024 64 102 0.0 4.0 0.00 0.00 0.00 64 1016.0
20260906050519 64 74 2.0 4.0 0.00 0.00 0.00 66 1015.9
20260906050101 63 82 2.0 4.0 0.00 0.00 0.00 66 1015.9
20260906045523 64 80 3.0 6.0 0.00 0.00 0.00 65 1015.9
20260906045018 63 78 3.0 7.0 0.00 0.00 0.00 66 1016.0
20260906044622 63 86 4.0 7.0 0.00 0.00 0.00 66 1016.0
20260906044023 63 103 5.0 7.0 0.00 0.00 0.00 66 1016.0
20260906043520 64 83 4.0 8.0 0.00 0.00 0.00 65 1016.0
20260906043103 63 87 5.0 8.0 0.00 0.00 0.00 66 1016.1
20260906042524 63 94 6.0 7.0 0.00 0.00 0.00 68 1016.1
20260906042024 63 90 3.0 6.0 0.00 0.00 0.00 69 1016.1
20260906041610 63 103 3.0 8.0 0.00 0.00 0.00 67 1016.2
20260906041021 63 88 5.0 8.0 0.00 0.00 0.00 68 1016.2
20260906040521 62 282 5.0 7.0 0.00 0.00 0.00 68 1016.2
20260906040120 61 282 4.0 7.0 0.00 0.00 0.00 69 1016.2
20260906035531 62 282 4.0 5.0 0.00 0.00 0.00 69 1016.3
20260906035024 62 282 2.0 4.0 0.00 0.00 0.00 69 1016.3
20260906034604 62 282 2.0 5.0 0.00 0.00 0.00 71 1016.3
20260906034025 62 282 3.0 6.0 0.00 0.00 0.00 68 1016.3
20260906033523 62 282 0.0 4.0 0.00 0.00 0.00 67 1016.4
20260906033104 62 282 2.0 5.0 0.00 0.00 0.00 66 1016.3
20260906032520 62 282 3.0 4.0 0.00 0.00 0.00 66 1016.3
20260906032023 62 282 2.0 3.0 0.00 0.00 0.00 66 1016.3
20260906031618 62 282 0.0 3.0 0.00 0.00 0.00 65 1016.2
20260906031024 63 282 2.0 4.0 0.00 0.00 0.00 65 1016.2
20260906030524 63 282 3.0 5.0 0.00 0.00 0.00 65 1016.1
20260906030121 64 282 3.0 5.0 0.00 0.00 0.00 64 1016.1
20260906025524 65 282 4.0 6.0 0.00 0.00 0.00 65 1016.2
20260906025024 66 282 1.0 3.0 0.00 0.00 0.00 64 1016.2
20260906024625 66 282 1.0 3.0 0.00 0.00 0.00 63 1016.1
20260906024021 67 282 0.0 2.0 0.00 0.00 0.00 61 1016.1
20260906023526 67 282 0.0 2.0 0.00 0.00 0.00 62 1016.1
20260906023117 67 282 0.0 3.0 0.00 0.00 0.00 63 1016.1
20260906022521 66 282 0.0 3.0 0.00 0.00 0.00 64 1016.1
20260906022022 66 282 2.0 3.0 0.00 0.00 0.00 65 1016.1
20260906021623 66 282 1.0 3.0 0.00 0.00 0.00 63 1016.1
20260906021023 66 282 2.0 4.0 0.00 0.00 0.00 63 1016.1
20260906020524 66 282 2.0 4.0 0.00 0.00 0.00 64 1016.2
20260906020123 66 282 2.0 4.0 0.00 0.00 0.00 62 1016.2
20260906015523 66 282 2.0 5.0 0.00 0.00 0.00 65 1016.2
20260906015024 66 282 3.0 5.0 0.00 0.00 0.00 65 1016.2
20260906014621 66 282 3.0 6.0 0.00 0.00 0.00 65 1016.1
20260906014024 66 282 5.0 7.0 0.00 0.00 0.00 65 1016.2
20260906013526 66 282 5.0 7.0 0.00 0.00 0.00 65 1016.2
20260906013125 66 282 5.0 7.0 0.00 0.00 0.00 65 1016.3
20260906012525 66 282 5.0 7.0 0.00 0.00 0.00 65 1016.3
20260906012025 67 282 5.0 7.0 0.00 0.00 0.00 64 1016.0
20260906011622 67 282 5.0 7.0 0.00 0.00 0.00 64 1015.9
20260906011024 67 282 4.0 6.0 0.00 0.00 0.00 62 1016.0
20260906010527 68 282 4.0 7.0 0.00 0.00 0.00 63 1016.1
20260906010133 68 282 6.0 7.0 0.00 0.00 0.00 60 1016.1
20260906005524 68 282 4.0 7.0 0.00 0.00 0.00 59 1016.2
20260906005024 69 282 4.0 7.0 0.00 0.00 0.00 58 1016.1
20260906004538 70 282 3.0 4.0 0.00 0.00 0.00 55 1016.2
20260906004029 70 282 2.0 7.0 0.00 0.00 0.00 55 1016.2
20260906003525 70 282 4.0 7.0 0.00 0.00 0.00 54 1016.2
20260906003124 70 282 5.0 8.0 0.00 0.00 0.00 54 1016.2
20260906002518 70 282 6.0 8.0 0.00 0.00 0.00 51 1016.3
20260906002026 70 282 4.0 8.0 0.00 0.00 0.00 54 1016.0
20260906001603 69 282 6.0 9.0 0.00 0.00 0.00 53 1016.1
20260906001027 69 281 7.0 9.0 0.00 0.00 0.00 50 1016.2
20260906000524 71 284 6.0 9.0 0.00 0.00 0.00 49 1016.2
20260906000107 72 284 5.0 7.0 0.00 0.00 0.00 47 1016.4
20260905235524 73 284 3.0 6.0 0.00 0.00 0.00 48 1016.4
20260905235025 73 284 2.0 5.0 0.00 0.00 0.00 49 1016.5
20260905234608 73 284 2.0 4.0 0.00 0.00 0.00 47 1016.4
20260905234025 73 284 2.0 4.0 0.00 0.00 0.00 48 1016.5
20260905233524 72 284 2.0 4.0 0.00 0.00 0.00 51 1016.5
20260905233107 71 284 2.0 5.0 0.00 0.00 0.00 52 1016.5
20260905232527 70 284 3.0 5.0 0.00 0.00 0.00 51 1016.5
20260905232023 70 284 4.0 7.0 0.00 0.00 0.00 50 1016.6
20260905231620 70 284 4.0 7.0 0.00 0.00 0.00 50 1016.7
20260905231024 71 284 4.0 7.0 0.00 0.00 0.00 50 1016.8
20260905230524 71 284 2.0 5.0 0.00 0.00 0.00 51 1016.8
20260905230131 70 284 3.0 5.0 0.00 0.00 0.00 50 1016.8
20260905225524 70 284 3.0 4.0 0.00 0.00 0.00 51 1016.8